contact:dominique.lefevre@mio.osupytheas.fr, maurice.libes@osupytheas.fr, didier.mallarino@osupytheas.fr
Project:EMSO http://www.emso-fr.org/EMSO-France
Depth: 2436.0 m
Title:EMSO Ligure Ouest : Data MII capteur MICROCAT
DateTime_Computer,Latitude,Longitude,Temperature,Conductivity,Pressure,DateTime_Instrument
DateTime_Computer,Latitude,Longitude,degC,S m-1,dbar,DateTime_Instrument
2019-07-05T00:01:55Z,42.805,6.029,13.2966,4.59986,2469.947,2019-7-05T02:02:13Z
2019-07-05T00:04:58Z,42.805,6.029,13.2964,4.59968,2469.947,2019-7-05T02:05:15Z
2019-07-05T00:08:01Z,42.805,6.029,13.2964,4.59968,2469.9,2019-7-05T02:08:18Z
2019-07-05T00:11:04Z,42.805,6.029,13.2964,4.59973,2469.923,2019-7-05T02:11:21Z
2019-07-05T00:14:07Z,42.805,6.029,13.2971,4.59987,2469.937,2019-7-05T02:14:24Z
2019-07-05T00:17:10Z,42.805,6.029,13.2964,4.59971,2469.96,2019-7-05T02:17:27Z
2019-07-05T00:20:13Z,42.805,6.029,13.2964,4.59976,2469.947,2019-7-05T02:20:30Z
2019-07-05T00:23:16Z,42.805,6.029,13.2960,4.59966,2469.937,2019-7-05T02:23:33Z
2019-07-05T00:26:18Z,42.805,6.029,13.2961,4.59968,2469.923,2019-7-05T02:26:36Z
2019-07-05T00:29:21Z,42.805,6.029,13.2964,4.59979,2469.9,2019-7-05T02:29:39Z
2019-07-05T00:32:24Z,42.805,6.029,13.2958,4.59976,2469.9,2019-7-05T02:32:42Z
2019-07-05T00:35:27Z,42.805,6.029,13.2961,4.59966,2469.9,2019-7-05T02:35:45Z
2019-07-05T00:38:30Z,42.805,6.029,13.2959,4.59964,2469.9,2019-7-05T02:38:48Z
2019-07-05T00:41:33Z,42.805,6.029,13.2963,4.59966,2469.923,2019-7-05T02:41:51Z
2019-07-05T00:44:36Z,42.805,6.029,13.2968,4.59966,2469.9,2019-7-05T02:44:54Z
2019-07-05T00:47:39Z,42.805,6.029,13.2961,4.59992,2469.9,2019-7-05T02:47:57Z
2019-07-05T00:50:42Z,42.805,6.029,13.2961,4.59972,2469.923,2019-7-05T02:51:00Z
2019-07-05T00:53:45Z,42.805,6.029,13.2969,4.59970,2469.923,2019-7-05T02:54:03Z
2019-07-05T00:56:48Z,42.805,6.029,13.2963,4.59973,2469.9,2019-7-05T02:57:06Z
2019-07-05T00:59:51Z,42.805,6.029,13.2965,4.59972,2469.9,2019-7-05T03:00:08Z
2019-07-05T01:02:54Z,42.805,6.029,13.2967,4.59973,2469.867,2019-7-05T03:03:11Z
2019-07-05T01:05:57Z,42.805,6.029,13.2967,4.59987,2469.9,2019-7-05T03:06:14Z
2019-07-05T01:09:00Z,42.805,6.029,13.2963,4.59974,2469.89,2019-7-05T03:09:17Z
2019-07-05T01:12:03Z,42.805,6.029,13.2964,4.59968,2469.9,2019-7-05T03:12:20Z
2019-07-05T01:15:06Z,42.805,6.029,13.2965,4.59972,2469.914,2019-7-05T03:15:23Z
2019-07-05T01:18:08Z,42.805,6.029,13.2960,4.59971,2469.853,2019-7-05T03:18:26Z
2019-07-05T01:21:11Z,42.805,6.029,13.2962,4.59986,2469.9,2019-7-05T03:21:29Z
2019-07-05T01:24:14Z,42.805,6.029,13.2964,4.59967,2469.89,2019-7-05T03:24:32Z
2019-07-05T01:27:17Z,42.805,6.029,13.2964,4.59973,2469.89,2019-7-05T03:27:35Z
2019-07-05T01:30:20Z,42.805,6.029,13.2967,4.59975,2469.89,2019-7-05T03:30:38Z
2019-07-05T01:33:23Z,42.805,6.029,13.2961,4.59970,2469.876,2019-7-05T03:33:41Z
2019-07-05T01:36:26Z,42.805,6.029,13.2969,4.59970,2469.89,2019-7-05T03:36:44Z
2019-07-05T01:39:29Z,42.805,6.029,13.2967,4.59975,2469.83,2019-7-05T03:39:47Z
2019-07-05T01:42:32Z,42.805,6.029,13.2964,4.59967,2469.914,2019-7-05T03:42:50Z
2019-07-05T01:45:35Z,42.805,6.029,13.2962,4.59969,2469.876,2019-7-05T03:45:53Z
2019-07-05T01:48:38Z,42.805,6.029,13.2967,4.59968,2469.839,2019-7-05T03:48:56Z
2019-07-05T01:51:41Z,42.805,6.029,13.2969,4.59967,2469.89,2019-7-05T03:51:58Z
2019-07-05T01:54:44Z,42.805,6.029,13.2961,4.59966,2469.867,2019-7-05T03:55:01Z
2019-07-05T01:57:47Z,42.805,6.029,13.2962,4.59967,2469.876,2019-7-05T03:58:04Z
2019-07-05T02:00:50Z,42.805,6.029,13.2963,4.59980,2469.83,2019-7-05T04:01:07Z
2019-07-05T02:03:53Z,42.805,6.029,13.2965,4.59973,2469.876,2019-7-05T04:04:10Z
2019-07-05T02:06:56Z,42.805,6.029,13.2959,4.59967,2469.844,2019-7-05T04:07:13Z
2019-07-05T02:09:59Z,42.805,6.029,13.2958,4.59972,2469.83,2019-7-05T04:10:16Z
2019-07-05T02:13:01Z,42.805,6.029,13.2964,4.59979,2469.821,2019-7-05T04:13:19Z
2019-07-05T02:16:04Z,42.805,6.029,13.2959,4.59969,2469.853,2019-7-05T04:16:22Z
2019-07-05T02:19:07Z,42.805,6.029,13.2973,4.59983,2469.876,2019-7-05T04:19:25Z
2019-07-05T02:22:10Z,42.805,6.029,13.2962,4.59969,2469.867,2019-7-05T04:22:28Z
2019-07-05T02:25:13Z,42.805,6.029,13.2962,4.59981,2469.853,2019-7-05T04:25:31Z
2019-07-05T02:28:16Z,42.805,6.029,13.2967,4.60002,2469.844,2019-7-05T04:28:34Z
2019-07-05T02:31:19Z,42.805,6.029,13.2960,4.59996,2469.83,2019-7-05T04:31:37Z
2019-07-05T02:34:22Z,42.805,6.029,13.2968,4.59983,2469.821,2019-7-05T04:34:40Z
2019-07-05T02:37:25Z,42.805,6.029,13.2966,4.59971,2469.83,2019-7-05T04:37:43Z
2019-07-05T02:40:28Z,42.805,6.029,13.2962,4.59976,2469.844,2019-7-05T04:40:46Z
2019-07-05T02:43:31Z,42.805,6.029,13.2963,4.59982,2469.83,2019-7-05T04:43:49Z
2019-07-05T02:46:34Z,42.805,6.029,13.2965,4.60010,2469.83,2019-7-05T04:46:51Z
2019-07-05T02:49:37Z,42.805,6.029,13.2968,4.59976,2469.806,2019-7-05T04:49:54Z
2019-07-05T02:52:40Z,42.805,6.029,13.2967,4.59963,2469.844,2019-7-05T04:52:57Z
2019-07-05T02:55:43Z,42.805,6.029,13.2967,4.59977,2469.806,2019-7-05T04:56:00Z
2019-07-05T02:58:46Z,42.805,6.029,13.2960,4.59971,2469.821,2019-7-05T04:59:03Z
2019-07-05T03:01:49Z,42.805,6.029,13.2967,4.59971,2469.844,2019-7-05T05:02:06Z
2019-07-05T03:04:51Z,42.805,6.029,13.2960,4.59971,2469.844,2019-7-05T05:05:09Z
2019-07-05T03:07:54Z,42.805,6.029,13.2960,4.59976,2469.806,2019-7-05T05:08:12Z
2019-07-05T03:10:57Z,42.805,6.029,13.2960,4.59972,2469.806,2019-7-05T05:11:15Z
2019-07-05T03:14:00Z,42.805,6.029,13.2961,4.59979,2469.806,2019-7-05T05:14:18Z
2019-07-05T03:17:03Z,42.805,6.029,13.2964,4.59992,2469.821,2019-7-05T05:17:21Z
2019-07-05T03:20:06Z,42.805,6.029,13.2964,4.59973,2469.797,2019-7-05T05:20:24Z
2019-07-05T03:23:09Z,42.805,6.029,13.2963,4.59969,2469.821,2019-7-05T05:23:27Z
2019-07-05T03:26:12Z,42.805,6.029,13.2965,4.59982,2469.806,2019-7-05T05:26:30Z
2019-07-05T03:29:15Z,42.805,6.029,13.2963,4.59971,2469.806,2019-7-05T05:29:33Z
2019-07-05T03:32:18Z,42.805,6.029,13.2960,4.59966,2469.821,2019-7-05T05:32:36Z
2019-07-05T03:35:21Z,42.805,6.029,13.2963,4.59969,2469.806,2019-7-05T05:35:39Z
2019-07-05T03:38:24Z,42.805,6.029,13.2968,4.59986,2469.83,2019-7-05T05:38:41Z
2019-07-05T03:41:27Z,42.805,6.029,13.2968,4.59985,2469.83,2019-7-05T05:41:44Z
2019-07-05T03:44:30Z,42.805,6.029,13.2964,4.60001,2469.844,2019-7-05T05:44:47Z
2019-07-05T03:47:33Z,42.805,6.029,13.2962,4.59978,2469.83,2019-7-05T05:47:50Z
2019-07-05T03:50:36Z,42.805,6.029,13.2959,4.59970,2469.844,2019-7-05T05:50:53Z
2019-07-05T03:53:39Z,42.805,6.029,13.2966,4.59976,2469.783,2019-7-05T05:53:56Z
2019-07-05T03:56:42Z,42.805,6.029,13.2961,4.59979,2469.806,2019-7-05T05:56:59Z
2019-07-05T03:59:45Z,42.805,6.029,13.2964,4.59971,2469.821,2019-7-05T06:00:02Z
2019-07-05T04:02:47Z,42.805,6.029,13.2961,4.59970,2469.821,2019-7-05T06:03:05Z
2019-07-05T04:05:50Z,42.805,6.029,13.2968,4.59974,2469.806,2019-7-05T06:06:08Z
2019-07-05T04:08:53Z,42.805,6.029,13.2960,4.59966,2469.806,2019-7-05T06:09:11Z
2019-07-05T04:11:56Z,42.805,6.029,13.2967,4.59969,2469.806,2019-7-05T06:12:14Z
2019-07-05T04:14:59Z,42.805,6.029,13.2963,4.59985,2469.821,2019-7-05T06:15:17Z
2019-07-05T04:18:02Z,42.805,6.029,13.2963,4.59982,2469.821,2019-7-05T06:18:20Z
2019-07-05T04:21:05Z,42.805,6.029,13.2961,4.59975,2469.844,2019-7-05T06:21:23Z
2019-07-05T04:24:08Z,42.805,6.029,13.2974,4.59997,2469.783,2019-7-05T06:24:26Z
2019-07-05T04:27:11Z,42.805,6.029,13.2963,4.59979,2469.844,2019-7-05T06:27:29Z
2019-07-05T04:30:14Z,42.805,6.029,13.2964,4.59973,2469.806,2019-7-05T06:30:32Z
2019-07-05T04:33:17Z,42.805,6.029,13.2967,4.59968,2469.806,2019-7-05T06:33:35Z
2019-07-05T04:36:20Z,42.805,6.029,13.2964,4.60009,2469.821,2019-7-05T06:36:37Z
2019-07-05T04:39:23Z,42.805,6.029,13.2956,4.59975,2469.806,2019-7-05T06:39:40Z
2019-07-05T04:42:26Z,42.805,6.029,13.2966,4.59968,2469.806,2019-7-05T06:42:43Z
2019-07-05T04:45:29Z,42.805,6.029,13.2961,4.59964,2469.806,2019-7-05T06:45:46Z
2019-07-05T04:48:32Z,42.805,6.029,13.2963,4.59971,2469.783,2019-7-05T06:48:49Z
2019-07-05T04:51:35Z,42.805,6.029,13.2962,4.59967,2469.821,2019-7-05T06:51:52Z
2019-07-05T04:54:38Z,42.805,6.029,13.2966,4.59972,2469.806,2019-7-05T06:54:55Z
2019-07-05T04:57:40Z,42.805,6.029,13.2961,4.59971,2469.844,2019-7-05T06:57:58Z
2019-07-05T05:00:43Z,42.805,6.029,13.2971,4.59973,2469.821,2019-7-05T07:01:01Z
2019-07-05T05:03:46Z,42.805,6.029,13.2966,4.59978,2469.844,2019-7-05T07:04:04Z
2019-07-05T05:06:49Z,42.805,6.029,13.2964,4.59979,2469.853,2019-7-05T07:07:07Z
2019-07-05T05:09:52Z,42.805,6.029,13.2958,4.59983,2469.821,2019-7-05T07:10:10Z
2019-07-05T05:12:55Z,42.805,6.029,13.2967,4.59974,2469.83,2019-7-05T07:13:13Z
2019-07-05T05:15:58Z,42.805,6.029,13.2966,4.59972,2469.844,2019-7-05T07:16:16Z
2019-07-05T05:19:01Z,42.805,6.029,13.2964,4.59971,2469.806,2019-7-05T07:19:19Z
2019-07-05T05:22:04Z,42.805,6.029,13.2959,4.59969,2469.83,2019-7-05T07:22:22Z
2019-07-05T05:25:07Z,42.805,6.029,13.2961,4.59974,2469.83,2019-7-05T07:25:25Z
2019-07-05T05:28:10Z,42.805,6.029,13.2961,4.59983,2469.806,2019-7-05T07:28:27Z
2019-07-05T05:31:13Z,42.805,6.029,13.2967,4.59981,2469.867,2019-7-05T07:31:30Z
2019-07-05T05:34:16Z,42.805,6.029,13.2963,4.59976,2469.839,2019-7-05T07:34:33Z
2019-07-05T05:37:19Z,42.805,6.029,13.2967,4.59977,2469.853,2019-7-05T07:37:36Z
2019-07-05T05:40:22Z,42.805,6.029,13.2961,4.59981,2469.853,2019-7-05T07:40:39Z
2019-07-05T05:43:25Z,42.805,6.029,13.2965,4.59985,2469.806,2019-7-05T07:43:42Z
2019-07-05T05:46:28Z,42.805,6.029,13.2963,4.59981,2469.853,2019-7-05T07:46:45Z
2019-07-05T05:49:31Z,42.805,6.029,13.2974,4.59995,2469.853,2019-7-05T07:49:48Z
2019-07-05T05:52:33Z,42.805,6.029,13.2973,4.59993,2469.83,2019-7-05T07:52:51Z
2019-07-05T05:55:36Z,42.805,6.029,13.2964,4.59996,2469.867,2019-7-05T07:55:54Z
2019-07-05T05:58:39Z,42.805,6.029,13.2964,4.59986,2469.83,2019-7-05T07:58:57Z
2019-07-05T06:01:42Z,42.805,6.029,13.2964,4.59971,2469.853,2019-7-05T08:02:00Z
2019-07-05T06:04:45Z,42.805,6.029,13.2966,4.59983,2469.853,2019-7-05T08:05:03Z
2019-07-05T06:07:48Z,42.805,6.029,13.2961,4.59979,2469.867,2019-7-05T08:08:06Z
2019-07-05T06:10:51Z,42.805,6.029,13.2958,4.59974,2469.867,2019-7-05T08:11:09Z
2019-07-05T06:13:54Z,42.805,6.029,13.2967,4.59977,2469.853,2019-7-05T08:14:12Z
2019-07-05T06:16:57Z,42.805,6.029,13.2969,4.59973,2469.867,2019-7-05T08:17:15Z
2019-07-05T06:20:00Z,42.805,6.029,13.2961,4.59981,2469.867,2019-7-05T08:20:17Z
2019-07-05T06:23:03Z,42.805,6.029,13.2967,4.59976,2469.876,2019-7-05T08:23:20Z
2019-07-05T06:26:06Z,42.805,6.029,13.2967,4.59988,2469.83,2019-7-05T08:26:23Z
2019-07-05T06:29:09Z,42.805,6.029,13.2956,4.59976,2469.853,2019-7-05T08:29:26Z
2019-07-05T06:32:12Z,42.805,6.029,13.2959,4.59985,2469.876,2019-7-05T08:32:29Z
2019-07-05T06:35:15Z,42.805,6.029,13.2957,4.59970,2469.867,2019-7-05T08:35:32Z
2019-07-05T06:38:18Z,42.805,6.029,13.2964,4.59975,2469.89,2019-7-05T08:38:35Z
2019-07-05T06:41:21Z,42.805,6.029,13.2960,4.59969,2469.867,2019-7-05T08:41:38Z
2019-07-05T06:44:23Z,42.805,6.029,13.2971,4.59983,2469.9,2019-7-05T08:44:41Z
2019-07-05T06:47:26Z,42.805,6.029,13.2965,4.59971,2469.89,2019-7-05T08:47:44Z
2019-07-05T06:50:29Z,42.805,6.029,13.2961,4.59985,2469.914,2019-7-05T08:50:47Z
2019-07-05T06:53:32Z,42.805,6.029,13.2971,4.59982,2469.923,2019-7-05T08:53:50Z
2019-07-05T06:56:35Z,42.805,6.029,13.2962,4.59979,2469.876,2019-7-05T08:56:53Z
2019-07-05T06:59:38Z,42.805,6.029,13.2962,4.59970,2469.9,2019-7-05T08:59:56Z
2019-07-05T07:02:41Z,42.805,6.029,13.2960,4.59988,2469.89,2019-7-05T09:02:59Z
2019-07-05T07:05:44Z,42.805,6.029,13.2968,4.59973,2469.9,2019-7-05T09:06:02Z
2019-07-05T07:08:47Z,42.805,6.029,13.2962,4.59980,2469.9,2019-7-05T09:09:05Z
2019-07-05T07:11:50Z,42.805,6.029,13.2963,4.59976,2469.9,2019-7-05T09:12:08Z
2019-07-05T07:14:53Z,42.805,6.029,13.2960,4.59970,2469.947,2019-7-05T09:15:10Z
2019-07-05T07:17:56Z,42.805,6.029,13.2958,4.59965,2469.9,2019-7-05T09:18:13Z
2019-07-05T07:20:59Z,42.805,6.029,13.2957,4.59969,2469.9,2019-7-05T09:21:16Z
2019-07-05T07:24:02Z,42.805,6.029,13.2959,4.59991,2469.914,2019-7-05T09:24:19Z
2019-07-05T07:27:05Z,42.805,6.029,13.2976,4.60001,2469.937,2019-7-05T09:27:22Z
2019-07-05T07:30:08Z,42.805,6.029,13.2967,4.59971,2469.9,2019-7-05T09:30:25Z
2019-07-05T07:33:11Z,42.805,6.029,13.2965,4.59973,2469.89,2019-7-05T09:33:28Z
2019-07-05T07:36:14Z,42.805,6.029,13.2963,4.59996,2469.9,2019-7-05T09:36:31Z
2019-07-05T07:39:16Z,42.805,6.029,13.2958,4.59976,2469.914,2019-7-05T09:39:34Z
2019-07-05T07:42:19Z,42.805,6.029,13.2964,4.59989,2469.923,2019-7-05T09:42:37Z
2019-07-05T07:45:22Z,42.805,6.029,13.2967,4.59986,2469.984,2019-7-05T09:45:40Z
2019-07-05T07:48:25Z,42.805,6.029,13.2959,4.59976,2469.923,2019-7-05T09:48:43Z
2019-07-05T07:51:28Z,42.805,6.029,13.2962,4.59979,2469.96,2019-7-05T09:51:46Z
2019-07-05T07:54:31Z,42.805,6.029,13.2960,4.59966,2469.96,2019-7-05T09:54:49Z
2019-07-05T07:57:34Z,42.805,6.029,13.2962,4.59979,2469.96,2019-7-05T09:57:52Z
2019-07-05T08:00:37Z,42.805,6.029,13.2960,4.59971,2469.947,2019-7-05T10:00:55Z
2019-07-05T08:03:40Z,42.805,6.029,13.2961,4.59968,2469.96,2019-7-05T10:03:58Z
2019-07-05T08:06:43Z,42.805,6.029,13.2958,4.59974,2469.923,2019-7-05T10:07:01Z
2019-07-05T08:09:46Z,42.805,6.029,13.2958,4.59972,2469.923,2019-7-05T10:10:04Z
2019-07-05T08:12:49Z,42.805,6.029,13.2963,4.59985,2469.947,2019-7-05T10:13:06Z
2019-07-05T08:15:52Z,42.805,6.029,13.2959,4.59982,2469.937,2019-7-05T10:16:09Z
2019-07-05T08:18:55Z,42.805,6.029,13.2962,4.59969,2469.947,2019-7-05T10:19:12Z
2019-07-05T08:21:58Z,42.805,6.029,13.2965,4.59975,2469.923,2019-7-05T10:22:15Z
2019-07-05T08:25:01Z,42.805,6.029,13.2957,4.59975,2469.947,2019-7-05T10:25:18Z
2019-07-05T08:28:04Z,42.805,6.029,13.2961,4.59975,2469.947,2019-7-05T10:28:21Z
2019-07-05T08:31:07Z,42.805,6.029,13.2960,4.59979,2469.96,2019-7-05T10:31:24Z
2019-07-05T08:34:10Z,42.805,6.029,13.2967,4.59976,2469.96,2019-7-05T10:34:27Z
2019-07-05T08:37:12Z,42.805,6.029,13.2960,4.59965,2469.947,2019-7-05T10:37:30Z
2019-07-05T08:40:15Z,42.805,6.029,13.2958,4.59970,2469.96,2019-7-05T10:40:33Z
2019-07-05T08:43:18Z,42.805,6.029,13.2960,4.59966,2469.96,2019-7-05T10:43:36Z
2019-07-05T08:46:21Z,42.805,6.029,13.2962,4.59964,2469.96,2019-7-05T10:46:39Z
2019-07-05T08:49:24Z,42.805,6.029,13.2959,4.59960,2469.923,2019-7-05T10:49:42Z
2019-07-05T08:52:27Z,42.805,6.029,13.2959,4.59964,2469.947,2019-7-05T10:52:45Z
2019-07-05T08:55:30Z,42.805,6.029,13.2963,4.59969,2469.923,2019-7-05T10:55:48Z
2019-07-05T08:58:33Z,42.805,6.029,13.2964,4.59982,2469.923,2019-7-05T10:58:51Z
2019-07-05T09:01:36Z,42.805,6.029,13.2958,4.59978,2469.947,2019-7-05T11:01:54Z
2019-07-05T09:04:39Z,42.805,6.029,13.2965,4.59975,2469.923,2019-7-05T11:04:57Z
2019-07-05T09:07:42Z,42.805,6.029,13.2969,4.59973,2469.947,2019-7-05T11:08:00Z
2019-07-05T09:10:45Z,42.805,6.029,13.2964,4.59983,2469.947,2019-7-05T11:11:03Z
2019-07-05T09:13:48Z,42.805,6.029,13.2958,4.59964,2469.923,2019-7-05T11:14:05Z
2019-07-05T09:16:51Z,42.805,6.029,13.2964,4.59970,2469.947,2019-7-05T11:17:08Z
2019-07-05T09:19:54Z,42.805,6.029,13.2964,4.59968,2469.96,2019-7-05T11:20:11Z
2019-07-05T09:22:57Z,42.805,6.029,13.2958,4.59970,2469.914,2019-7-05T11:23:14Z
2019-07-05T09:26:00Z,42.805,6.029,13.2961,4.59970,2469.923,2019-7-05T11:26:17Z
2019-07-05T09:29:03Z,42.805,6.029,13.2958,4.59963,2469.923,2019-7-05T11:29:20Z
2019-07-05T09:32:06Z,42.805,6.029,13.2960,4.59967,2469.97,2019-7-05T11:32:23Z
2019-07-05T09:35:08Z,42.805,6.029,13.2958,4.59969,2469.947,2019-7-05T11:35:26Z
2019-07-05T09:38:11Z,42.805,6.029,13.2957,4.59964,2469.947,2019-7-05T11:38:29Z
2019-07-05T09:41:14Z,42.805,6.029,13.2958,4.59964,2469.937,2019-7-05T11:41:32Z
2019-07-05T09:44:17Z,42.805,6.029,13.2957,4.59967,2469.876,2019-7-05T11:44:35Z
2019-07-05T09:47:20Z,42.805,6.029,13.2958,4.59964,2469.933,2019-7-05T11:47:38Z
2019-07-05T09:50:23Z,42.805,6.029,13.2964,4.59970,2469.9,2019-7-05T11:50:41Z
2019-07-05T09:53:26Z,42.805,6.029,13.2961,4.59973,2469.9,2019-7-05T11:53:44Z
2019-07-05T09:56:29Z,42.805,6.029,13.2958,4.59965,2469.937,2019-7-05T11:56:47Z
2019-07-05T09:59:32Z,42.805,6.029,13.2961,4.59975,2469.923,2019-7-05T11:59:50Z
2019-07-05T10:02:35Z,42.805,6.029,13.2958,4.59969,2469.923,2019-7-05T12:02:53Z
2019-07-05T10:05:38Z,42.805,6.029,13.2961,4.59969,2469.923,2019-7-05T12:05:56Z
2019-07-05T10:08:41Z,42.805,6.029,13.2961,4.59970,2469.923,2019-7-05T12:08:59Z
2019-07-05T10:11:44Z,42.805,6.029,13.2960,4.59971,2469.937,2019-7-05T12:12:01Z
2019-07-05T10:14:47Z,42.805,6.029,13.2963,4.59976,2469.9,2019-7-05T12:15:04Z
2019-07-05T10:17:50Z,42.805,6.029,13.2969,4.59981,2469.937,2019-7-05T12:18:07Z
2019-07-05T10:20:53Z,42.805,6.029,13.2964,4.59976,2469.876,2019-7-05T12:21:10Z
2019-07-05T10:23:56Z,42.805,6.029,13.2958,4.59967,2469.9,2019-7-05T12:24:13Z
2019-07-05T10:26:59Z,42.805,6.029,13.2961,4.59969,2469.9,2019-7-05T12:27:16Z
2019-07-05T10:30:02Z,42.805,6.029,13.2965,4.59972,2469.876,2019-7-05T12:30:19Z
2019-07-05T10:33:05Z,42.805,6.029,13.2961,4.59970,2469.9,2019-7-05T12:33:22Z
2019-07-05T10:36:07Z,42.805,6.029,13.2962,4.59976,2469.923,2019-7-05T12:36:25Z
2019-07-05T10:39:10Z,42.805,6.029,13.2960,4.59968,2469.9,2019-7-05T12:39:28Z
2019-07-05T10:42:13Z,42.805,6.029,13.2961,4.59970,2469.876,2019-7-05T12:42:31Z
2019-07-05T10:45:16Z,42.805,6.029,13.2962,4.59972,2469.9,2019-7-05T12:45:34Z
2019-07-05T10:48:19Z,42.805,6.029,13.2961,4.59991,2469.876,2019-7-05T12:48:37Z
2019-07-05T10:51:22Z,42.805,6.029,13.2958,4.59968,2469.867,2019-7-05T12:51:40Z
2019-07-05T10:54:25Z,42.805,6.029,13.2957,4.59964,2469.844,2019-7-05T12:54:43Z
2019-07-05T10:57:28Z,42.805,6.029,13.2960,4.59964,2469.853,2019-7-05T12:57:46Z
2019-07-05T11:00:31Z,42.805,6.029,13.2958,4.59966,2469.876,2019-7-05T13:00:49Z
2019-07-05T11:03:34Z,42.805,6.029,13.2961,4.59979,2469.853,2019-7-05T13:03:52Z
2019-07-05T11:06:37Z,42.805,6.029,13.2962,4.59964,2469.867,2019-7-05T13:06:55Z
2019-07-05T11:09:40Z,42.805,6.029,13.2967,4.59973,2469.876,2019-7-05T13:09:58Z
2019-07-05T11:12:43Z,42.805,6.029,13.2959,4.59968,2469.867,2019-7-05T13:13:00Z
2019-07-05T11:15:46Z,42.805,6.029,13.2959,4.59969,2469.867,2019-7-05T13:16:03Z
2019-07-05T11:18:49Z,42.805,6.029,13.2958,4.59975,2469.867,2019-7-05T13:19:06Z
2019-07-05T11:21:52Z,42.805,6.029,13.2961,4.59969,2469.867,2019-7-05T13:22:09Z
2019-07-05T11:24:55Z,42.805,6.029,13.2958,4.59968,2469.853,2019-7-05T13:25:12Z
2019-07-05T11:27:58Z,42.805,6.029,13.2961,4.59977,2469.867,2019-7-05T13:28:15Z
2019-07-05T11:31:01Z,42.805,6.029,13.2958,4.59966,2469.853,2019-7-05T13:31:18Z
2019-07-05T11:34:03Z,42.805,6.029,13.2960,4.59976,2469.867,2019-7-05T13:34:21Z
2019-07-05T11:37:06Z,42.805,6.029,13.2957,4.59964,2469.867,2019-7-05T13:37:24Z
2019-07-05T11:40:09Z,42.805,6.029,13.2963,4.59968,2469.853,2019-7-05T13:40:27Z
2019-07-05T11:43:12Z,42.805,6.029,13.2958,4.59972,2469.867,2019-7-05T13:43:30Z
2019-07-05T11:46:15Z,42.805,6.029,13.2961,4.59973,2469.853,2019-7-05T13:46:33Z
2019-07-05T11:49:18Z,42.805,6.029,13.2958,4.59966,2469.876,2019-7-05T13:49:36Z
2019-07-05T11:52:21Z,42.805,6.029,13.2964,4.59967,2469.83,2019-7-05T13:52:39Z
2019-07-05T11:55:24Z,42.805,6.029,13.2967,4.59983,2469.844,2019-7-05T13:55:42Z
2019-07-05T11:58:27Z,42.805,6.029,13.2967,4.59978,2469.867,2019-7-05T13:58:45Z
2019-07-05T12:01:30Z,42.805,6.029,13.2958,4.59974,2469.821,2019-7-05T14:01:48Z
2019-07-05T12:04:33Z,42.805,6.029,13.2968,4.59968,2469.83,2019-7-05T14:04:51Z
2019-07-05T12:07:36Z,42.805,6.029,13.2965,4.59966,2469.853,2019-7-05T14:07:54Z
2019-07-05T12:10:39Z,42.805,6.029,13.2965,4.59968,2469.806,2019-7-05T14:10:56Z
2019-07-05T12:13:42Z,42.805,6.029,13.2958,4.59969,2469.853,2019-7-05T14:13:59Z
2019-07-05T12:16:45Z,42.805,6.029,13.2964,4.59966,2469.83,2019-7-05T14:17:02Z
2019-07-05T12:19:48Z,42.805,6.029,13.2963,4.59965,2469.844,2019-7-05T14:20:05Z
2019-07-05T12:22:51Z,42.805,6.029,13.2958,4.59964,2469.853,2019-7-05T14:23:08Z
2019-07-05T12:25:54Z,42.805,6.029,13.2960,4.59968,2469.844,2019-7-05T14:26:11Z
2019-07-05T12:28:57Z,42.805,6.029,13.2957,4.59964,2469.853,2019-7-05T14:29:14Z
2019-07-05T12:31:59Z,42.805,6.029,13.2970,4.59982,2469.806,2019-7-05T14:32:17Z
2019-07-05T12:35:02Z,42.805,6.029,13.2974,4.59984,2469.844,2019-7-05T14:35:20Z
2019-07-05T12:38:05Z,42.805,6.029,13.2964,4.59976,2469.844,2019-7-05T14:38:23Z
2019-07-05T12:41:08Z,42.805,6.029,13.2961,4.59993,2469.783,2019-7-05T14:41:26Z
2019-07-05T12:44:11Z,42.805,6.029,13.2967,4.59976,2469.821,2019-7-05T14:44:29Z
2019-07-05T12:47:14Z,42.805,6.029,13.2958,4.59966,2469.797,2019-7-05T14:47:32Z
2019-07-05T12:50:17Z,42.805,6.029,13.2957,4.59964,2469.806,2019-7-05T14:50:35Z
2019-07-05T12:53:20Z,42.805,6.029,13.2964,4.59976,2469.793,2019-7-05T14:53:38Z
2019-07-05T12:56:23Z,42.805,6.029,13.2961,4.59966,2469.783,2019-7-05T14:56:41Z
2019-07-05T12:59:26Z,42.805,6.029,13.2964,4.59966,2469.783,2019-7-05T14:59:44Z
2019-07-05T13:02:29Z,42.805,6.029,13.2961,4.59966,2469.783,2019-7-05T15:02:47Z
2019-07-05T13:05:32Z,42.805,6.029,13.2959,4.59963,2469.806,2019-7-05T15:05:50Z
2019-07-05T13:08:35Z,42.805,6.029,13.2960,4.59968,2469.783,2019-7-05T15:08:52Z
2019-07-05T13:11:38Z,42.805,6.029,13.2965,4.59964,2469.783,2019-7-05T15:11:55Z
2019-07-05T13:14:41Z,42.805,6.029,13.2964,4.59964,2469.783,2019-7-05T15:14:58Z
2019-07-05T13:17:44Z,42.805,6.029,13.2964,4.59975,2469.783,2019-7-05T15:18:01Z
2019-07-05T13:20:47Z,42.805,6.029,13.2968,4.59986,2469.773,2019-7-05T15:21:04Z
2019-07-05T13:23:50Z,42.805,6.029,13.2960,4.59963,2469.783,2019-7-05T15:24:07Z
2019-07-05T13:26:53Z,42.805,6.029,13.2957,4.59964,2469.769,2019-7-05T15:27:10Z
2019-07-05T13:29:55Z,42.805,6.029,13.2962,4.59965,2469.76,2019-7-05T15:30:13Z
2019-07-05T13:32:58Z,42.805,6.029,13.2962,4.59964,2469.773,2019-7-05T15:33:16Z
2019-07-05T13:36:01Z,42.805,6.029,13.2963,4.59964,2469.769,2019-7-05T15:36:19Z
2019-07-05T13:39:04Z,42.805,6.029,13.2961,4.59972,2469.783,2019-7-05T15:39:22Z
2019-07-05T13:42:07Z,42.805,6.029,13.2970,4.59973,2469.783,2019-7-05T15:42:25Z
2019-07-05T13:45:10Z,42.805,6.029,13.2964,4.59973,2469.773,2019-7-05T15:45:28Z
2019-07-05T13:48:13Z,42.805,6.029,13.2956,4.59972,2469.797,2019-7-05T15:48:31Z
2019-07-05T13:51:16Z,42.805,6.029,13.2957,4.59971,2469.797,2019-7-05T15:51:34Z
2019-07-05T13:54:19Z,42.805,6.029,13.2962,4.59967,2469.76,2019-7-05T15:54:37Z
2019-07-05T13:57:22Z,42.805,6.029,13.2963,4.59970,2469.773,2019-7-05T15:57:40Z
2019-07-05T14:00:25Z,42.805,6.029,13.2962,4.59977,2469.76,2019-7-05T16:00:43Z
2019-07-05T14:03:28Z,42.805,6.029,13.2956,4.59974,2469.737,2019-7-05T16:03:46Z
2019-07-05T14:06:31Z,42.805,6.029,13.2960,4.59969,2469.773,2019-7-05T16:06:48Z
2019-07-05T14:09:34Z,42.805,6.029,13.2957,4.59970,2469.76,2019-7-05T16:09:51Z
2019-07-05T14:12:37Z,42.805,6.029,13.2964,4.59971,2469.75,2019-7-05T16:12:54Z
2019-07-05T14:15:40Z,42.805,6.029,13.2961,4.59979,2469.75,2019-7-05T16:15:57Z
2019-07-05T14:18:43Z,42.805,6.029,13.2971,4.59983,2469.773,2019-7-05T16:19:00Z
2019-07-05T14:21:46Z,42.805,6.029,13.2957,4.59973,2469.737,2019-7-05T16:22:03Z
2019-07-05T14:24:49Z,42.805,6.029,13.2967,4.59978,2469.737,2019-7-05T16:25:06Z
2019-07-05T14:27:51Z,42.805,6.029,13.2970,4.59981,2469.773,2019-7-05T16:28:09Z
2019-07-05T14:30:54Z,42.805,6.029,13.2964,4.59987,2469.76,2019-7-05T16:31:12Z
2019-07-05T14:33:57Z,42.805,6.029,13.2967,4.59983,2469.75,2019-7-05T16:34:15Z
2019-07-05T14:37:00Z,42.805,6.029,13.2966,4.59981,2469.773,2019-7-05T16:37:18Z
2019-07-05T14:40:03Z,42.805,6.029,13.2967,4.59991,2469.713,2019-7-05T16:40:21Z
2019-07-05T14:43:06Z,42.805,6.029,13.2960,4.59976,2469.737,2019-7-05T16:43:24Z
2019-07-05T14:46:09Z,42.805,6.029,13.2959,4.59972,2469.76,2019-7-05T16:46:27Z
2019-07-05T14:49:12Z,42.805,6.029,13.2963,4.59996,2469.76,2019-7-05T16:49:30Z
2019-07-05T14:52:15Z,42.805,6.029,13.2963,4.59968,2469.737,2019-7-05T16:52:33Z
2019-07-05T14:55:18Z,42.805,6.029,13.2963,4.59968,2469.737,2019-7-05T16:55:36Z
2019-07-05T14:58:21Z,42.805,6.029,13.2961,4.59981,2469.75,2019-7-05T16:58:39Z
2019-07-05T15:01:24Z,42.805,6.029,13.2960,4.59973,2469.737,2019-7-05T17:01:42Z
2019-07-05T15:04:27Z,42.805,6.029,13.2961,4.59974,2469.76,2019-7-05T17:04:45Z
2019-07-05T15:07:30Z,42.805,6.029,13.2967,4.59978,2469.737,2019-7-05T17:07:47Z
2019-07-05T15:10:33Z,42.805,6.029,13.2959,4.59967,2469.727,2019-7-05T17:10:50Z
2019-07-05T15:13:36Z,42.805,6.029,13.2965,4.59967,2469.75,2019-7-05T17:13:53Z